Weather History for San Carlos, CA

Change the Weather History Date:

Monday, June 9, 2014

  Actual Average Record
Temperature  
Mean Temperature 74 °F -  
Max Temperature 86 °F 78 °F 101 °F (1973)
Min Temperature 62 °F 51 °F 42 °F (1979)
Cooling Degree Days 9    
Growing Degree Days 24 (Base 50)    
Moisture  
Dew Point 56 °F    
Average Humidity 68    
Maximum Humidity 77    
Minimum Humidity 33    
Precipitation  
Precipitation 0.00 in - - ()
Sea Level Pressure  
Sea Level Pressure 29.73 in    
Wind  
Wind Speed 3 mph (NNW)    
Max Wind Speed 14 mph    
Max Gust Speed -    
Visibility 10 miles    
Events      
Averages and records for this station are not official NWS values.
T = Trace of Precipitation, MM = Missing Value Source: NWS Daily Summary

Daily Weather History Graph

Daily Weather History Graph

Search for Another Location

Airport:

Trip Planner

Search our weather history database for the weather conditions in past years. The results will help you decide how hot, cold, wet, or windy it might be!

Date:

Astronomy

Jun. 09, 2014 Rise Set
Actual Time 5:47 AM PDT 8:29 PM PDT
Civil Twilight 5:16 AM PDT 9:00 PM PDT
Nautical Twilight 4:37 AM PDT 9:38 PM PDT
Astronomical Twilight 3:54 AM PDT 10:22 PM PDT
Moon 4:59 PM PDT (6/9) 3:13 AM PDT (6/9)
Length of Visible Light 15h 43m
Length of Day
14h 41m
Waxing Gibbous, 86% of the Moon is Illuminated
Jun 9
Waxing Gibbous
Jun 12
Full
Jun 19
Last Quarter
Jun 27
New
Jul 5
First Quarter

Hourly Weather History & Observations

Time (PDT) Temp. Heat Index Dew Point Humidity Pressure Visibility Wind Dir Wind Speed Gust Speed Precip Events Conditions
12:15 AM 66.2 °F - 55.4 °F 68% 29.75 in 10.0 mi Calm Calm - N/A   Clear
12:35 AM 64.4 °F - 55.4 °F 73% 29.75 in 10.0 mi Calm Calm - N/A   Clear
12:55 AM 64.4 °F - 55.4 °F 73% 29.75 in 10.0 mi Calm Calm - N/A   Clear
1:15 AM 64.4 °F - 55.4 °F 73% 29.75 in 10.0 mi Calm Calm - N/A   Clear
1:35 AM 64.4 °F - 55.4 °F 73% 29.75 in 10.0 mi NW 3.5 mph - N/A   Clear
1:55 AM 64.4 °F - 55.4 °F 73% 29.75 in 10.0 mi NW 4.6 mph - N/A   Clear
2:15 AM 64.4 °F - 55.4 °F 73% 29.75 in 10.0 mi NW 3.5 mph - N/A   Clear
2:35 AM 64.4 °F - 55.4 °F 73% 29.74 in 10.0 mi NW 3.5 mph - N/A   Clear
2:55 AM 64.4 °F - 55.4 °F 73% 29.74 in 10.0 mi Calm Calm - N/A   Clear
3:15 AM 62.6 °F - 55.4 °F 77% 29.75 in 10.0 mi North 3.5 mph - N/A   Clear
3:35 AM 62.6 °F - 55.4 °F 77% 29.75 in 10.0 mi Calm Calm - N/A   Clear
3:55 AM 62.6 °F - 55.4 °F 77% 29.74 in 10.0 mi Calm Calm - N/A   Clear
4:15 AM 62.6 °F - 55.4 °F 77% 29.74 in 10.0 mi Calm Calm - N/A   Clear
4:35 AM 62.6 °F - 53.6 °F 72% 29.74 in 10.0 mi Calm Calm - N/A   Clear
4:55 AM 62.6 °F - 53.6 °F 72% 29.74 in 10.0 mi Calm Calm - N/A   Clear
5:15 AM 62.6 °F - 53.6 °F 72% 29.74 in 10.0 mi Calm Calm - N/A   Clear
5:35 AM 62.6 °F - 55.4 °F 77% 29.74 in 10.0 mi Calm Calm - N/A   Clear
5:55 AM 62.6 °F - 55.4 °F 77% 29.75 in 8.0 mi Calm Calm - N/A   Clear
6:15 AM 62.6 °F - 53.6 °F 72% 29.75 in 9.0 mi Calm Calm - N/A   Clear
6:35 AM 62.6 °F - 53.6 °F 72% 29.75 in 9.0 mi Calm Calm - N/A   Clear
6:47 AM 64.4 °F - 55.4 °F 73% 29.75 in 9.0 mi Calm Calm - N/A   Clear
6:55 AM 64.4 °F - 55.4 °F 73% 29.75 in 9.0 mi Calm Calm - N/A   Clear
7:47 AM 66.2 °F - 57.2 °F 73% 29.77 in 9.0 mi Calm Calm - N/A   Clear
8:47 AM 68.0 °F - 57.2 °F 68% 29.77 in 9.0 mi Variable 5.8 mph - N/A   Clear
10:57 AM 71.6 °F - 59.0 °F 64% 29.75 in 10.0 mi NNE 9.2 mph - N/A   Partly Cloudy
12:47 PM 77.0 °F - 57.2 °F 50% 29.73 in 10.0 mi NNW 8.1 mph - N/A   Partly Cloudy
1:48 PM 78.8 °F - 55.4 °F 44% 29.71 in 10.0 mi NNW 13.8 mph - N/A   Partly Cloudy
2:51 PM 80.6 °F 80.8 °F 57.2 °F 45% 29.70 in 10.0 mi NNW 10.4 mph - N/A   Partly Cloudy
3:47 PM 82.4 °F 83.9 °F 64.4 °F 54% 29.69 in 10.0 mi North 12.7 mph - N/A   Partly Cloudy
4:47 PM 86.0 °F 84.2 °F 53.6 °F 33% 29.68 in 10.0 mi WNW 11.5 mph - N/A   Partly Cloudy
5:50 PM 84.2 °F - 51.8 °F 33% 29.68 in 10.0 mi WNW 12.7 mph - N/A   Partly Cloudy
6:50 PM 73.4 °F - 60.8 °F 65% 29.68 in 10.0 mi NNE 12.7 mph - N/A   Clear
7:47 PM 71.6 °F - 59.0 °F 64% 29.70 in 10.0 mi Calm Calm - N/A   Clear
8:47 PM 66.2 °F - 57.2 °F 73% 29.71 in 10.0 mi North 5.8 mph - N/A   Clear
9:15 PM 68.0 °F - 57.2 °F 68% 29.72 in 10.0 mi NNE 4.6 mph - N/A   Clear
9:35 PM 68.0 °F - 55.4 °F 64% 29.72 in 10.0 mi SSW 3.5 mph - N/A   Clear
9:55 PM 68.0 °F - 57.2 °F 68% 29.73 in 10.0 mi NNE 4.6 mph - N/A   Clear
10:15 PM 66.2 °F - 55.4 °F 68% 29.73 in 10.0 mi NNW 4.6 mph - N/A   Clear
10:35 PM 64.4 °F - 55.4 °F 73% 29.74 in 10.0 mi NNW 5.8 mph - N/A   Clear
10:55 PM 64.4 °F - 55.4 °F 73% 29.74 in 10.0 mi North 4.6 mph - N/A   Clear
11:15 PM 64.4 °F - 55.4 °F 73% 29.74 in 10.0 mi North 4.6 mph - N/A   Clear
11:35 PM 62.6 °F - 55.4 °F 77% 29.74 in 10.0 mi NNW 3.5 mph - N/A   Clear
11:55 PM 62.6 °F - 55.4 °F 77% 29.74 in 10.0 mi NNW 3.5 mph - N/A   Clear